[[{"header":{"parameterUnit":"m.s-1","parameterCategory":1,"la1":30.2991,"la2":30.254,"lo1":-89.0895,"lo2":-89.0444,"dy":0.0017,"dx":0.0017,"nx":28,"ny":28,"refTime":"2025-07-17T21:00:00:Z","depth":0,"parameterNumber":2,"parameterNumberName":"U-component_of_WINDS"},"data":[0,0,0,0,0,0,0,0,0,0,0,0,0,0,0,0,0,0,0,0,0,0,0,0,0,0,0,0,0,0,0,0,0,0,0,0,0,0,0,0,0,0,0,0,0,0,0,0,0,0,0,0,0,0,0,0,0,0,1.8091,1.8092,0,1.8257,1.8259,1.826,1.8299,1.8298,1.8296,1.8295,1.847,1.8476,1.8481,0,0,0,0,0,0,0,0,0,0,0,0,0,1.781,1.7815,1.809,1.8093,1.8095,1.8256,1.8259,1.8261,1.8299,1.8298,1.8296,1.8295,1.8468,1.8475,1.8482,0,0,0,0,0,0,0,0,0,0,0,0,0,1.795,1.7817,1.809,1.8133,1.8138,1.8256,1.8259,1.8262,1.8299,1.8298,1.8296,1.8294,1.8466,1.8474,1.8483,1.8571,0,0,1.8509,1.8513,0,0,0,0,0,0,0,0,1.7942,1.796,1.8125,1.813,1.8137,1.8255,1.8224,1.8365,1.83,1.8238,1.8295,1.8293,1.84,1.8414,1.8449,1.8579,1.8586,1.851,1.8515,1.8519,1.8521,0,0,0,0,0,0,0,1.7932,1.7953,1.8156,1.8127,1.8134,1.8145,1.8163,1.8251,1.8327,1.8244,1.8247,1.8266,1.8403,1.8441,1.8454,1.8589,1.851,1.8517,1.8523,1.8526,1.8799,1.8801,0,0,0,0,0,0,1.7915,1.7945,1.8151,1.8161,1.8033,1.8152,1.8172,1.8219,1.8326,1.8341,1.8267,1.8267,1.8427,1.8444,1.846,1.857,1.8519,1.8527,1.8532,1.8797,1.88,1.8802,0,0,0,0,0,0,1.7908,1.7933,1.8144,1.8054,1.8082,1.8158,1.8211,1.8223,1.8261,1.8344,1.8358,1.8291,1.8426,1.8448,1.8543,1.8577,1.8531,1.8538,1.8795,1.8798,1.8801,1.879,0,0,0,0,0,0,1.79,1.793,1.7963,1.8054,1.8086,1.8223,1.8213,1.8228,1.8275,1.8276,1.837,1.8384,1.8427,1.853,1.8551,1.8588,1.8545,1.8792,1.8796,1.88,1.8788,1.8793,1.8797,0,0,0,0,0,1.789,1.7955,1.7965,1.7989,1.8129,1.8225,1.8243,1.8289,1.8277,1.8312,1.8366,1.8381,1.8569,1.8539,1.8564,1.8603,1.879,1.8795,1.88,1.8786,1.8792,1.8797,0,0,0,0,0,0,1.7867,1.7967,1.798,1.8075,1.8141,1.8231,1.8276,1.8294,1.8365,1.8364,1.8419,1.844,1.8532,1.8577,1.8541,1.8694,1.868,1.8689,1.8661,1.8667,1.8671,1.8659,1.8552,0,0,0,0,0,1.7872,1.794,1.8025,1.8101,1.8133,1.8199,1.8242,1.8272,1.8343,1.8371,1.8432,1.8501,1.8576,1.8624,1.8697,1.8795,1.8816,1.8834,1.8839,1.8842,1.885,1.8905,1.8914,1.8818,1.8818,1.8818,0,0,1.7886,1.7949,1.7989,1.8098,1.8153,1.8223,1.8222,1.8296,1.8349,1.8383,1.8476,1.8522,1.8604,1.87,1.8746,1.8741,1.8881,1.8848,1.885,1.8856,1.8911,1.892,1.8928,1.8821,1.882,1.882,0,0,1.7945,1.8,1.8069,1.8123,1.8205,1.8248,1.8265,1.8352,1.8384,1.8477,1.8504,1.8569,1.8696,1.8753,1.8799,1.8879,1.8897,1.8902,1.8925,1.8978,1.8986,1.8993,1.9022,1.9032,1.891,1.891,1.891,0,1.7951,1.8057,1.8103,1.8176,1.8223,1.8256,1.8327,1.8378,1.848,1.8513,1.8506,1.8666,1.8723,1.8833,1.8853,1.8889,1.891,1.8892,1.8981,1.8988,1.8995,1.9024,1.9035,1.891,1.891,1.891,1.891,0,1.806,1.8133,1.818,1.8276,1.8329,1.8401,1.8459,1.8508,1.8533,1.8577,1.8672,1.8742,1.8829,1.8858,1.8884,1.8972,1.8966,1.8969,1.8956,1.9004,1.9031,1.9043,1.891,1.891,1.891,1.891,0,0,1.811,1.823,1.8247,1.8291,1.8383,1.8441,1.8515,1.8599,1.864,1.871,1.8773,1.888,1.8883,1.8935,1.8968,1.9014,1.9074,1.9012,1.9014,1.9021,1.9176,1.9173,1.9185,1.9086,1.9088,1.909,1.9169,0,1.8181,1.8312,1.8356,1.8465,1.8533,1.8565,1.8629,1.8693,1.8737,1.8802,1.8851,1.8925,1.8924,1.8955,1.9003,1.9056,1.9106,1.9051,1.9147,1.915,1.9125,1.9199,1.9197,1.9268,1.918,1.9182,1.9183,0,1.8281,1.835,1.8466,1.855,1.858,1.8637,1.8718,1.8779,1.8853,1.8882,1.8939,1.8968,1.9048,1.9029,1.9141,1.9102,1.9144,1.9177,1.9181,1.9192,1.9169,1.9212,1.9292,1.9302,1.9201,1.9199,1.9198,0,1.8305,1.8428,1.8513,1.855,1.865,1.8689,1.8733,1.8805,1.8853,1.8924,1.8956,1.9036,1.9081,1.9143,1.9193,1.9175,1.93,1.9286,1.9327,1.9325,1.9351,1.9349,1.9439,1.9378,1.9378,1.9378,1.9378,0,1.838,1.8449,1.8525,1.8577,1.8656,1.8707,1.8784,1.883,1.8894,1.8957,1.899,1.9048,1.9111,1.9178,1.9219,1.9305,1.9324,1.935,1.936,1.9347,1.9344,1.9376,1.9372,1.9381,1.938,1.938,1.9379,0,1.842,1.8474,1.8568,1.8655,1.8678,1.8733,1.8808,1.8861,1.8905,1.8984,1.9005,1.9076,1.9157,1.9213,1.9317,1.9344,1.9437,1.9447,1.9411,1.9416,1.9454,1.9449,1.9567,1.9585,1.9512,1.9513,1.9513,0,1.8464,1.8518,1.861,1.8654,1.8697,1.8767,1.8816,1.8868,1.8918,1.9006,1.9048,1.9131,1.92,1.9327,1.9389,1.9469,1.9481,1.9516,1.9493,1.9478,1.9481,1.9477,1.9483,1.952,1.952,1.9521,1.9521,0,1.8536,1.856,1.8628,1.8706,1.8763,1.8827,1.8892,1.8926,1.8989,1.9044,1.9126,1.9179,1.9285,1.9367,1.9452,1.9499,1.9521,1.9528,1.9541,1.9529,1.9506,1.9519,1.9421,1.9525,1.9525,1.9524,1.9524,1.9524,1.858,1.8629,1.8702,1.8777,1.8831,1.889,1.8944,1.8994,1.9063,1.9152,1.9179,1.9264,1.9338,1.9455,1.9503,1.9572,1.957,1.9589,1.9595,1.9599,1.9598,1.9495,1.9588,1.9588,1.9588,1.9588,1.9588,0,1.8654,1.8702,1.877,1.8859,1.8918,1.8932,1.9004,1.9053,1.9127,1.9194,1.926,1.9355,1.9434,1.9502,1.9584,1.9626,1.9638,1.9646,1.9644,1.9654,1.9595,1.9575,1.9635,1.9635,1.9635,1.9635,1.9635,1.9635,1.8699,1.8783,1.8816,1.8927,1.8975,1.9058,1.9098,1.9153,1.9206,1.931,1.9375,1.9418,1.9486,1.9573,1.9647,1.9665,1.9694,1.97,1.972,1.9664,1.9658,1.9653,1.9635,1.9706,1.9706,1.9773,1.9774,1.9775]},{"header":{"parameterUnit":"m.s-1","parameterCategory":1,"la1":30.2991,"la2":30.254,"lo1":-89.0895,"lo2":-89.0444,"dy":0.0017,"dx":0.0017,"nx":28,"ny":28,"refTime":"2025-07-17T21:00:00:Z","depth":0,"parameterNumber":3,"parameterNumberName":"V-component_of_WINDS"},"data":[0,0,0,0,0,0,0,0,0,0,0,0,0,0,0,0,0,0,0,0,0,0,0,0,0,0,0,0,0,0,0,0,0,0,0,0,0,0,0,0,0,0,0,0,0,0,0,0,0,0,0,0,0,0,0,0,0,0,4.0272,4.0272,0,4.031,4.031,4.031,4.0317,4.0317,4.0317,4.0317,4.0351,4.0352,4.0354,0,0,0,0,0,0,0,0,0,0,0,0,0,4.0201,4.0202,4.0272,4.0272,4.0273,4.0309,4.031,4.031,4.0318,4.0317,4.0317,4.0316,4.0351,4.0352,4.0354,0,0,0,0,0,0,0,0,0,0,0,0,0,4.0234,4.0203,4.0271,4.0281,4.0282,4.0309,4.031,4.0311,4.0318,4.0317,4.0317,4.0316,4.035,4.0352,4.0354,4.0374,0,0,4.0359,4.036,0,0,0,0,0,0,0,0,4.0232,4.0237,4.0279,4.028,4.0281,4.0308,4.0298,4.0332,4.0318,4.0304,4.0317,4.0316,4.0337,4.034,4.0348,4.0376,4.0377,4.036,4.0361,4.0361,4.0362,0,0,0,0,0,0,0,4.023,4.0235,4.0286,4.0279,4.0281,4.0281,4.0286,4.0304,4.0322,4.0305,4.0306,4.031,4.0338,4.0346,4.0349,4.0378,4.036,4.0361,4.0362,4.0363,4.0423,4.0423,0,0,0,0,0,0,4.0227,4.0233,4.0285,4.0288,4.0256,4.0283,4.0288,4.03,4.0322,4.0325,4.0311,4.031,4.0343,4.0347,4.035,4.0375,4.0361,4.0363,4.0364,4.0422,4.0423,4.0424,0,0,0,0,0,0,4.0225,4.0231,4.0284,4.0261,4.0267,4.0285,4.0298,4.0301,4.031,4.0327,4.0329,4.0316,4.0343,4.0348,4.0368,4.0376,4.0364,4.0366,4.0422,4.0423,4.0423,4.0424,0,0,0,0,0,0,4.0223,4.0231,4.024,4.0261,4.0269,4.0302,4.0299,4.0302,4.0313,4.0313,4.0333,4.0335,4.0343,4.0365,4.037,4.0378,4.0367,4.0421,4.0422,4.0423,4.0424,4.0425,4.0426,0,0,0,0,0,4.0221,4.0237,4.024,4.0246,4.028,4.0303,4.0307,4.0317,4.0314,4.0322,4.0333,4.0335,4.0375,4.0367,4.0373,4.0382,4.0421,4.0422,4.0423,4.0423,4.0425,4.0426,0,0,0,0,0,0,4.0215,4.024,4.0243,4.0268,4.0283,4.0304,4.0315,4.0319,4.0334,4.0333,4.0344,4.0348,4.0368,4.0377,4.0369,4.0402,4.0397,4.0399,4.0395,4.0397,4.0398,4.0396,4.0369,0,0,0,0,0,4.0217,4.0235,4.0255,4.0275,4.0282,4.0297,4.0307,4.0314,4.033,4.0336,4.0348,4.0362,4.0378,4.0388,4.0403,4.0425,4.0429,4.0434,4.0435,4.0436,4.0437,4.0449,4.0451,4.0427,4.0427,4.0427,0,0,4.022,4.0236,4.0247,4.0274,4.0287,4.0303,4.0303,4.032,4.0333,4.0338,4.0359,4.0368,4.0385,4.0406,4.0416,4.0414,4.0445,4.0437,4.0438,4.0439,4.045,4.0453,4.0455,4.0428,4.0428,4.0428,0,0,4.0235,4.0249,4.0267,4.028,4.03,4.031,4.0314,4.0335,4.0342,4.0363,4.0367,4.0381,4.0408,4.042,4.0429,4.0448,4.045,4.0453,4.0459,4.0471,4.0473,4.0474,4.0481,4.0483,4.0455,4.0455,4.0455,0,4.0236,4.0264,4.0275,4.0294,4.0305,4.0312,4.033,4.0341,4.0364,4.0372,4.0369,4.0404,4.0415,4.0439,4.0444,4.0451,4.0455,4.0451,4.0472,4.0473,4.0475,4.0482,4.0484,4.0455,4.0455,4.0455,4.0455,0,4.0264,4.0283,4.0294,4.0318,4.0331,4.0349,4.0362,4.0373,4.0378,4.0388,4.0409,4.0423,4.0442,4.0448,4.0452,4.0472,4.047,4.047,4.0465,4.0477,4.0484,4.0486,4.0455,4.0455,4.0455,4.0455,0,0,4.0276,4.0307,4.0311,4.0322,4.0345,4.0358,4.0376,4.0395,4.0404,4.042,4.0434,4.0457,4.0457,4.0467,4.0473,4.0483,4.0497,4.0481,4.0482,4.0484,4.0519,4.052,4.0522,4.0499,4.05,4.05,4.0518,0,4.0294,4.0327,4.0338,4.0365,4.0382,4.0389,4.0404,4.0418,4.0428,4.0442,4.0452,4.0468,4.0467,4.0473,4.0483,4.0494,4.0505,4.0492,4.0511,4.0512,4.0507,4.0526,4.0526,4.0542,4.052,4.0521,4.0521,0,4.0318,4.0336,4.0365,4.0386,4.0393,4.0407,4.0425,4.044,4.0456,4.0462,4.0474,4.0479,4.0497,4.0491,4.0515,4.0506,4.0514,4.052,4.0521,4.0523,4.0517,4.0528,4.0548,4.055,4.0525,4.0525,4.0524,0,4.0324,4.0355,4.0376,4.0385,4.041,4.0419,4.043,4.0446,4.0457,4.0472,4.0479,4.0496,4.0505,4.0518,4.0527,4.0523,4.0549,4.0545,4.0554,4.0554,4.0559,4.0559,4.0581,4.0565,4.0565,4.0565,4.0565,0,4.0342,4.036,4.0379,4.0392,4.0412,4.0424,4.0442,4.0453,4.0467,4.0481,4.0488,4.05,4.0512,4.0526,4.0534,4.0552,4.0556,4.056,4.0562,4.056,4.0559,4.0565,4.0564,4.0565,4.0565,4.0565,4.0565,0,4.0352,4.0366,4.039,4.0411,4.0417,4.043,4.0448,4.046,4.047,4.0488,4.0493,4.0508,4.0525,4.0536,4.0557,4.0562,4.0581,4.0583,4.0576,4.0577,4.0585,4.0584,4.0612,4.0616,4.0597,4.0598,4.0598,0,4.0363,4.0376,4.04,4.0411,4.0422,4.0439,4.045,4.0463,4.0474,4.0494,4.0503,4.0521,4.0536,4.0563,4.0574,4.0591,4.0592,4.0601,4.0594,4.0592,4.0592,4.0591,4.0592,4.0601,4.0602,4.0602,4.0602,0,4.038,4.0386,4.0404,4.0424,4.0438,4.0453,4.0469,4.0477,4.0491,4.0504,4.0522,4.0534,4.0556,4.0573,4.059,4.0599,4.0603,4.0604,4.0607,4.0604,4.06,4.0602,4.0579,4.0603,4.0603,4.0603,4.0603,4.0603,4.039,4.0403,4.0422,4.0441,4.0454,4.0468,4.0481,4.0493,4.0509,4.0529,4.0535,4.0554,4.0569,4.0593,4.0603,4.0617,4.0615,4.062,4.0621,4.0622,4.0622,4.0598,4.062,4.062,4.062,4.062,4.062,0,4.0408,4.0421,4.0438,4.046,4.0475,4.0478,4.0496,4.0507,4.0524,4.0539,4.0554,4.0575,4.0592,4.0605,4.0622,4.0631,4.0633,4.0635,4.0634,4.0636,4.0622,4.0618,4.0633,4.0633,4.0633,4.0633,4.0633,4.0633,4.0419,4.044,4.0449,4.0477,4.0489,4.0509,4.0518,4.0531,4.0543,4.0567,4.0581,4.059,4.0604,4.0622,4.0637,4.0641,4.0647,4.0648,4.0652,4.0638,4.0637,4.0636,4.0632,4.065,4.065,4.0665,4.0665,4.0665]}]]